[[{"header":{"parameterUnit":"m.s-1","parameterCategory":1,"la1":30.2991,"la2":30.254,"lo1":-89.0895,"lo2":-89.0444,"dy":0.0017,"dx":0.0017,"nx":28,"ny":28,"refTime":"2026-01-07T09:00:00:Z","depth":0,"parameterNumber":2,"parameterNumberName":"U-component_of_WINDS"},"data":[0,0,0,0,0,0,0,0,0,0,0,0,0,0,0,0,0,0,0,0,0,0,0,0,0,0,0,0,0,0,0,0,0,0,0,0,0,0,0,0,0,0,0,0,0,0,0,0,0,0,0,0,0,0,0,0,0,0,1.7193,1.7194,0,1.7262,1.7263,1.7263,1.7237,1.7236,1.7234,1.7232,1.7309,1.7312,1.7315,0,0,0,0,0,0,0,0,0,0,0,0,0,1.7044,1.7047,1.7193,1.7194,1.7195,1.7262,1.7263,1.7264,1.7237,1.7236,1.7234,1.7232,1.7307,1.7312,1.7316,0,0,0,0,0,0,0,0,0,0,0,0,0,1.7111,1.7048,1.7193,1.7189,1.719,1.7262,1.7263,1.7264,1.7238,1.7235,1.7233,1.7231,1.7306,1.7311,1.7316,1.7397,0,0,1.7333,1.7335,0,0,0,0,0,0,0,0,1.7107,1.7116,1.7189,1.719,1.719,1.7238,1.7238,1.7309,1.7238,1.722,1.7232,1.723,1.7288,1.7294,1.7313,1.7401,1.7404,1.7333,1.7336,1.7338,1.734,0,0,0,0,0,0,0,1.7102,1.7113,1.722,1.719,1.7191,1.7186,1.7193,1.7251,1.7267,1.7221,1.7219,1.7228,1.7287,1.7308,1.7314,1.7405,1.7333,1.7338,1.7341,1.7343,1.7564,1.7566,0,0,0,0,0,0,1.7097,1.7109,1.7218,1.7222,1.7142,1.7191,1.7199,1.7225,1.7266,1.7269,1.723,1.7226,1.73,1.7308,1.7317,1.7414,1.7338,1.7343,1.7346,1.7561,1.7564,1.7567,0,0,0,0,0,0,1.7093,1.7107,1.7215,1.7165,1.7179,1.7196,1.7227,1.7228,1.7248,1.7272,1.7275,1.7247,1.7298,1.7309,1.7377,1.7416,1.7346,1.7351,1.7558,1.7562,1.7566,1.7609,0,0,0,0,0,0,1.7089,1.7106,1.7135,1.7166,1.7182,1.7273,1.7229,1.7231,1.7257,1.7253,1.7289,1.7293,1.7297,1.7369,1.7382,1.7422,1.7355,1.7554,1.756,1.7565,1.7604,1.7614,1.7622,0,0,0,0,0,1.7084,1.7145,1.7136,1.715,1.7218,1.7275,1.7284,1.7286,1.726,1.729,1.7306,1.7292,1.741,1.7376,1.7391,1.7433,1.7552,1.7558,1.7564,1.76,1.7612,1.7622,0,0,0,0,0,0,1.712,1.7149,1.714,1.7212,1.7241,1.727,1.7309,1.7299,1.7337,1.7332,1.7334,1.7343,1.7413,1.743,1.7392,1.7514,1.7477,1.7487,1.7499,1.7511,1.752,1.7514,1.7359,0,0,0,0,0,1.7136,1.7177,1.7202,1.7264,1.7279,1.7291,1.7316,1.7315,1.7346,1.7358,1.7379,1.7411,1.7455,1.7484,1.7526,1.7607,1.7615,1.7643,1.7652,1.7659,1.7667,1.7712,1.7725,1.7587,1.7587,1.7587,0,0,1.717,1.7191,1.7218,1.7272,1.7294,1.7339,1.7302,1.7351,1.7385,1.7366,1.7431,1.7447,1.7483,1.7558,1.7592,1.7574,1.7707,1.7667,1.7673,1.7677,1.7719,1.7732,1.7744,1.7591,1.7591,1.759,0,0,1.7254,1.7274,1.7328,1.7351,1.7385,1.7393,1.7406,1.7437,1.7447,1.7511,1.7499,1.754,1.7616,1.7642,1.7666,1.7762,1.775,1.7776,1.7823,1.7867,1.7877,1.7887,1.7921,1.7934,1.7784,1.7784,1.7784,0,1.7293,1.7358,1.7358,1.7407,1.7432,1.7417,1.7472,1.7495,1.7541,1.756,1.7539,1.7635,1.7658,1.7738,1.7762,1.7781,1.7797,1.7771,1.7876,1.7885,1.7894,1.7927,1.794,1.7787,1.7786,1.7786,1.7786,0,1.7403,1.7449,1.7489,1.7532,1.7562,1.7615,1.7624,1.7654,1.7651,1.7662,1.7729,1.7757,1.7804,1.7824,1.7822,1.7905,1.7893,1.7874,1.7837,1.791,1.7941,1.7954,1.7791,1.779,1.7789,1.7788,0,0,1.7511,1.7554,1.7569,1.7588,1.7625,1.7661,1.7714,1.7759,1.7785,1.7819,1.7863,1.7929,1.7912,1.7938,1.794,1.7978,1.8053,1.7955,1.7956,1.7972,1.8146,1.8159,1.8174,1.8046,1.8048,1.805,1.8143,0,1.7598,1.7688,1.769,1.7774,1.7817,1.7804,1.785,1.7878,1.7891,1.7931,1.7945,1.7991,1.7965,1.7981,1.8018,1.8035,1.8088,1.8029,1.8089,1.8091,1.8079,1.819,1.8204,1.829,1.8155,1.8157,1.8159,0,1.7711,1.7746,1.7834,1.7864,1.7883,1.7924,1.7966,1.8003,1.8037,1.8043,1.8073,1.8069,1.8125,1.8087,1.8165,1.8125,1.8151,1.8163,1.8166,1.8172,1.8129,1.8198,1.8317,1.833,1.8178,1.8176,1.8175,0,1.778,1.785,1.7911,1.7929,1.7966,1.7996,1.8013,1.8044,1.8071,1.8109,1.8126,1.8171,1.8195,1.823,1.8239,1.8211,1.8318,1.828,1.8325,1.8325,1.8348,1.8346,1.8473,1.8365,1.8365,1.8365,1.8364,0,1.7877,1.7931,1.7943,1.798,1.8041,1.8044,1.8105,1.8121,1.8148,1.819,1.8183,1.8222,1.8232,1.8274,1.8282,1.8346,1.8357,1.8365,1.8366,1.8365,1.8364,1.8381,1.8375,1.8368,1.8367,1.8367,1.8366,0,1.7964,1.7974,1.804,1.807,1.8079,1.8123,1.8149,1.8187,1.8198,1.8252,1.8265,1.8284,1.8333,1.8346,1.8406,1.8411,1.8486,1.8482,1.8474,1.8474,1.8518,1.8514,1.866,1.8679,1.8559,1.856,1.8561,0,1.8024,1.8065,1.81,1.8126,1.8145,1.8188,1.8215,1.8221,1.8251,1.8292,1.8324,1.8373,1.8412,1.8492,1.8512,1.8559,1.8555,1.8604,1.8562,1.856,1.8556,1.8553,1.8558,1.8611,1.8612,1.8613,1.8614,0,1.813,1.8133,1.8172,1.8213,1.8246,1.8279,1.8311,1.8334,1.8344,1.8378,1.8428,1.8458,1.8519,1.8567,1.8614,1.8634,1.8627,1.8627,1.864,1.8639,1.8633,1.8636,1.8495,1.8624,1.8623,1.8622,1.8621,1.8621,1.8205,1.8241,1.8271,1.8315,1.834,1.837,1.8406,1.8422,1.8463,1.8512,1.8514,1.8568,1.8602,1.8663,1.8686,1.873,1.8716,1.8734,1.8739,1.8744,1.8747,1.8626,1.8739,1.8739,1.8738,1.8738,1.8738,0,1.831,1.8329,1.837,1.8414,1.8449,1.8438,1.8473,1.8504,1.8551,1.8582,1.862,1.8679,1.8726,1.8751,1.8798,1.8829,1.8827,1.8841,1.8839,1.8844,1.8757,1.8741,1.8842,1.8842,1.8842,1.8842,1.8842,1.8842,1.8369,1.8429,1.8437,1.851,1.8529,1.8581,1.8602,1.863,1.8655,1.872,1.8759,1.8774,1.8803,1.8853,1.8897,1.8903,1.8921,1.8937,1.8941,1.886,1.885,1.8839,1.8824,1.8941,1.8941,1.9024,1.9025,1.9025]},{"header":{"parameterUnit":"m.s-1","parameterCategory":1,"la1":30.2991,"la2":30.254,"lo1":-89.0895,"lo2":-89.0444,"dy":0.0017,"dx":0.0017,"nx":28,"ny":28,"refTime":"2026-01-07T09:00:00:Z","depth":0,"parameterNumber":3,"parameterNumberName":"V-component_of_WINDS"},"data":[0,0,0,0,0,0,0,0,0,0,0,0,0,0,0,0,0,0,0,0,0,0,0,0,0,0,0,0,0,0,0,0,0,0,0,0,0,0,0,0,0,0,0,0,0,0,0,0,0,0,0,0,0,0,0,0,0,0,1.5969,1.5969,0,1.5964,1.5964,1.5964,1.5918,1.5917,1.5916,1.5915,1.5911,1.5912,1.5913,0,0,0,0,0,0,0,0,0,0,0,0,0,1.5942,1.5943,1.5969,1.5969,1.5969,1.5964,1.5964,1.5964,1.5919,1.5917,1.5916,1.5915,1.5911,1.5912,1.5913,0,0,0,0,0,0,0,0,0,0,0,0,0,1.5947,1.5943,1.5969,1.5946,1.5944,1.5964,1.5964,1.5964,1.5919,1.5917,1.5916,1.5914,1.5911,1.5912,1.5913,1.5956,0,0,1.5918,1.5918,0,0,0,0,0,0,0,0,1.5947,1.5948,1.595,1.5948,1.5945,1.594,1.5953,1.5961,1.5919,1.5928,1.5915,1.5913,1.5922,1.5923,1.5925,1.5956,1.5956,1.5918,1.5919,1.5919,1.592,0,0,0,0,0,0,0,1.5947,1.5948,1.5967,1.595,1.5947,1.5936,1.5935,1.5954,1.5935,1.5928,1.5924,1.5924,1.5921,1.5924,1.5925,1.5955,1.5918,1.5919,1.592,1.592,1.602,1.6022,0,0,0,0,0,0,1.595,1.5948,1.5967,1.5967,1.5942,1.5938,1.5937,1.5944,1.5935,1.5932,1.5926,1.5922,1.5923,1.5923,1.5925,1.5974,1.5919,1.5921,1.5921,1.6018,1.602,1.6022,0,0,0,0,0,0,1.5949,1.5952,1.5968,1.5957,1.5958,1.594,1.5948,1.5944,1.5947,1.5933,1.593,1.5932,1.5921,1.5923,1.5948,1.5973,1.5921,1.5923,1.6016,1.6019,1.6021,1.6072,0,0,0,0,0,0,1.5949,1.5952,1.5968,1.5957,1.5959,1.5991,1.595,1.5945,1.595,1.5945,1.5939,1.5936,1.592,1.5946,1.595,1.5974,1.5924,1.6014,1.6017,1.602,1.6068,1.6076,1.6083,0,0,0,0,0,1.5948,1.5983,1.5969,1.5971,1.5978,1.5993,1.5993,1.5974,1.5952,1.5968,1.5958,1.5936,1.597,1.5949,1.5953,1.5978,1.6012,1.6016,1.602,1.6065,1.6075,1.6083,0,0,0,0,0,0,1.5997,1.5981,1.5965,1.5998,1.5997,1.5985,1.6004,1.5985,1.5991,1.5986,1.5962,1.5961,1.5991,1.5987,1.5964,1.6018,1.5987,1.5992,1.602,1.6029,1.6036,1.6037,1.5925,0,0,0,0,0,1.6011,1.6024,1.601,1.604,1.604,1.6022,1.6028,1.6013,1.6011,1.6011,1.6003,1.6003,1.6013,1.6021,1.603,1.6067,1.6065,1.6086,1.6093,1.61,1.6104,1.6124,1.6133,1.6035,1.6035,1.6035,0,0,1.6042,1.6034,1.6044,1.6049,1.6047,1.6061,1.6022,1.6039,1.6049,1.6014,1.6037,1.6032,1.603,1.6061,1.6075,1.6059,1.6131,1.6105,1.611,1.6111,1.6129,1.6138,1.6146,1.6038,1.6038,1.6037,0,0,1.6104,1.61,1.6124,1.6122,1.6119,1.6107,1.6113,1.6103,1.6098,1.6121,1.6095,1.6107,1.6125,1.6125,1.6127,1.6188,1.6168,1.6192,1.6231,1.625,1.6258,1.6265,1.6287,1.6295,1.6197,1.6197,1.6197,0,1.6142,1.6162,1.6139,1.6158,1.6161,1.6128,1.6153,1.6152,1.6152,1.6155,1.6137,1.6159,1.6156,1.6186,1.6201,1.6204,1.621,1.6193,1.6259,1.6265,1.6271,1.6292,1.63,1.62,1.6199,1.6199,1.6199,0,1.6209,1.6223,1.6243,1.6243,1.6248,1.627,1.6251,1.6259,1.6244,1.6234,1.6257,1.6252,1.6259,1.6265,1.625,1.6294,1.6284,1.6263,1.6231,1.6283,1.6303,1.631,1.6204,1.6203,1.6202,1.6201,0,0,1.6303,1.6289,1.6297,1.6296,1.629,1.63,1.632,1.6326,1.6334,1.6335,1.6351,1.6367,1.6347,1.6349,1.6334,1.6351,1.64,1.6327,1.6327,1.6341,1.6448,1.6464,1.6473,1.6386,1.6388,1.6389,1.6448,0,1.6363,1.6395,1.6376,1.6411,1.6424,1.6393,1.641,1.6408,1.6399,1.6409,1.6399,1.6411,1.6384,1.6385,1.64,1.6391,1.6421,1.6386,1.6402,1.6402,1.6403,1.6483,1.6501,1.6557,1.6455,1.6456,1.6457,0,1.6437,1.644,1.6477,1.6468,1.6472,1.6488,1.6492,1.6501,1.6498,1.6491,1.6493,1.6474,1.6493,1.6461,1.6487,1.6464,1.6469,1.6466,1.6467,1.6468,1.6433,1.6487,1.6574,1.6582,1.6469,1.6468,1.6467,0,1.6502,1.6515,1.6539,1.6539,1.6529,1.6541,1.6537,1.6532,1.6537,1.654,1.6543,1.6549,1.6552,1.6558,1.654,1.6519,1.6569,1.6536,1.6563,1.6564,1.6576,1.6575,1.6665,1.6579,1.6578,1.6578,1.6578,0,1.6571,1.6595,1.6568,1.6583,1.6608,1.6585,1.6612,1.6605,1.6601,1.6614,1.6587,1.66,1.6576,1.6587,1.6574,1.6597,1.6599,1.6594,1.659,1.6596,1.6597,1.6599,1.6595,1.6581,1.658,1.658,1.6579,0,1.6648,1.6631,1.6654,1.6642,1.6639,1.6659,1.6649,1.6662,1.6651,1.6667,1.667,1.6653,1.6664,1.6647,1.6657,1.6648,1.668,1.6671,1.6681,1.6678,1.6707,1.6705,1.6802,1.6814,1.672,1.672,1.6721,0,1.6693,1.671,1.67,1.6706,1.6703,1.6714,1.6719,1.6697,1.6702,1.67,1.6714,1.6722,1.6728,1.6747,1.6736,1.6743,1.6733,1.6767,1.6734,1.674,1.6734,1.6733,1.6735,1.6774,1.6775,1.6776,1.6777,0,1.6775,1.6765,1.6772,1.6777,1.6782,1.6785,1.6785,1.6792,1.6769,1.6777,1.6787,1.6792,1.6801,1.681,1.6814,1.681,1.679,1.6787,1.6794,1.68,1.6806,1.6803,1.67,1.6785,1.6784,1.6783,1.6783,1.6783,1.6837,1.6851,1.6846,1.6854,1.6852,1.6853,1.6865,1.6855,1.6863,1.6868,1.6855,1.6868,1.6865,1.6868,1.6867,1.6877,1.6863,1.6872,1.6875,1.6878,1.6882,1.6804,1.6878,1.6878,1.6877,1.6877,1.6877,0,1.6918,1.6913,1.6921,1.6922,1.6929,1.6908,1.6907,1.6914,1.6927,1.6925,1.6931,1.6943,1.6951,1.694,1.6947,1.6958,1.6948,1.696,1.6959,1.6959,1.6895,1.6888,1.6967,1.6967,1.6967,1.6967,1.6967,1.6967,1.6961,1.6983,1.6973,1.6994,1.6988,1.7001,1.7002,1.7003,1.7001,1.7016,1.7023,1.7015,1.701,1.7016,1.7023,1.7019,1.7023,1.7038,1.7032,1.6972,1.6963,1.6955,1.6949,1.7039,1.7039,1.7094,1.7095,1.7095]}]]